This is the latest recevied weather packets stored in our database for station/object KC3ROS. If no packets are shown the sender has not sent any weather packets the latest 10 day(s).
| Time | Temp. | Humidity | Pressure | Rain* | Wind** | Luminosity | Snow |
|---|---|---|---|---|---|---|---|
| 1777673043 | 7.78° C | 97% | 1009.8 hPa | 0 mm | - | 62 W/m² | - |
| 1777672739 | 7.78° C | 97% | 1009.8 hPa | 0 mm | - | 120 W/m² | - |
| 1777672435 | 7.78° C | 98% | 1009.9 hPa | 0 mm | - | 33 W/m² | - |
| 1777672131 | 7.78° C | 97% | 1009.8 hPa | 0 mm | - | 85 W/m² | - |
| 1777671826 | 7.78° C | 98% | 1009.8 hPa | 0 mm | - | 96 W/m² | - |
| 1777671522 | 7.22° C | 99% | 1010 hPa | 0 mm | - | 72 W/m² | - |
| 1777671219 | 7.22° C | 99% | 1009.8 hPa | 0 mm | - | 99 W/m² | - |
| 1777670915 | 7.22° C | 99% | 1009.8 hPa | 0 mm | - | 37 W/m² | - |
| 1777670612 | 7.78° C | 99% | 1010 hPa | 0 mm | - | 47 W/m² | - |
| 1777670308 | 7.22° C | 99% | 1009.9 hPa | 0 mm | - | 66 W/m² | - |
| 1777670006 | 7.22° C | 99% | 1009.9 hPa | 0 mm | - | 89 W/m² | - |
| 1777669697 | 7.22° C | 99% | 1009.9 hPa | 0 mm | - | 66 W/m² | - |
| 1777669394 | 7.22° C | 99% | 1010 hPa | 0 mm | - | 78 W/m² | - |
| 1777669090 | 7.22° C | 99% | 1009.9 hPa | 0 mm | - | 73 W/m² | - |
| 1777668788 | 6.67° C | 99% | 1010.2 hPa | 0 mm | - | 67 W/m² | - |
| 1777668484 | 7.22° C | 99% | 1010.2 hPa | 0 mm | - | 49 W/m² | - |
| 1777668181 | 6.67° C | 99% | 1010.2 hPa | 0.51 mm | - | 35 W/m² | - |
| 1777667877 | 7.22° C | 99% | 1010.3 hPa | 1.27 mm | - | 34 W/m² | - |
| 1777667575 | 7.22° C | 99% | 1010.3 hPa | 1.27 mm | - | 29 W/m² | - |
| 1777667272 | 7.22° C | 99% | 1010.3 hPa | 1.78 mm | - | 30 W/m² | - |
| 1777666968 | 6.67° C | 98% | 1010.4 hPa | 1.27 mm | - | 37 W/m² | - |
| 1777666665 | 7.22° C | 98% | 1010.3 hPa | 0.51 mm | - | 36 W/m² | - |
| 1777666362 | 7.22° C | 98% | 1010.2 hPa | 1.27 mm | - | 45 W/m² | - |
| 1777666059 | 7.22° C | 98% | 1010.3 hPa | 0.51 mm | - | 44 W/m² | - |
| 1777665756 | 7.22° C | 98% | 1010.3 hPa | 0.51 mm | - | 35 W/m² | - |
* Rain latest hour (hover to see other rain measurements)
** Current wind speed in m/s (hover to see current wind gust speed)